sat.trackr.live / text

‹ back to catalog

STARLINK-32447

NORAD 61261 · 2024-175U

PAYLOAD ACTIVE UNKNOWN

§ Identity

Operator
Country
US
Launch date
2024-09-25
Launch site
AFWTR
Launch vehicle
Mass (kg)
RCS (m²)

Purposes: comms

External: N2YO · Heavens-Above · Gunter

§ Orbital elements

Epoch: 2026-09-21T10:58:05.651904Z

Period
93.85 min
Inclination
53.1623°
Eccentricity
0.0001468
Mean motion
15.34371293 rev/d
Perigee alt
461.8 km
Apogee alt
463.8 km
Semi-major
6,840.9 km
B*
-3.4242e-5
RAAN
1.3732°
Arg perigee
101.1377°
Mean anomaly
258.9791°
Rev number
11,147

§ Raw data

STARLINK-324471 61261U 24175U   26264.45700986 -.00001532  00000+0 -34242-4 0  99952 61261  53.1623   1.3732 0001468 101.1377 258.9791 15.34371293111476

JSON: /api/v1/satellites/61261 · /tle

For live sub-satellite position, see the globe view (requires WebGL).

§ Visibility from observer

Set your observer location to see the next 7 days of passes ≥ 10°. The values pass through the URL so the page stays shareable.

No JS? Fill the form by hand. The geolocation button needs JavaScript.